Weather History for Council Bluffs, IA

Change the Weather History Date:

Wednesday, February 19, 2014

  Actual Average Record
Temperature  
Mean Temperature 38 °F -  
Max Temperature 48 °F 37 °F 55 °F (2002)
Min Temperature 28 °F 23 °F 5 °F (2008)
Degree Days  
Heating Degree Days 27    
Moisture  
Dew Point 30 °F    
Average Humidity 71    
Maximum Humidity 93    
Minimum Humidity 37    
Precipitation  
Precipitation 0.00 in - - ()
Sea Level Pressure  
Sea Level Pressure 29.82 in    
Wind  
Wind Speed 8 mph (South)    
Max Wind Speed 18 mph    
Max Gust Speed 24 mph    
Visibility 10 miles    
Events      
Averages and records for this station are not official NWS values.
T = Trace of Precipitation, MM = Missing Value Source: NWS Daily Summary

Daily Weather History Graph

Daily Weather History Graph

Search for Another Location

Airport:

Trip Planner

Search our weather history database for the weather conditions in past years. The results will help you decide how hot, cold, wet, or windy it might be!

Date:

Astronomy

Feb. 19, 2014 Rise Set
Actual Time 7:12 AM CST 6:02 PM CST
Civil Twilight 6:44 AM CST 6:30 PM CST
Nautical Twilight 6:12 AM CST 7:02 PM CST
Astronomical Twilight 5:40 AM CST 7:34 PM CST
Moon 10:59 PM CST 9:15 AM CST
Length of Visible Light 11h 46m
Length of Day
10h 49m
Waning Gibbous, 79% of the Moon is Illuminated
Feb 19
Waning Gibbous
Feb 22
Last Quarter
Mar 1
New
Mar 8
First Quarter
Mar 16
Full

Hourly Weather History & Observations

Time (CST) Temp. Windchill Dew Point Humidity Pressure Visibility Wind Dir Wind Speed Gust Speed Precip Events Conditions
12:15 AM 39.2 °F 33.0 °F 30.2 °F 70% 29.91 in 10.0 mi NW 9.2 mph - N/A   Clear
12:35 AM 39.2 °F 34.2 °F 30.2 °F 70% 29.92 in 10.0 mi NW 6.9 mph 13.8 mph N/A   Clear
12:55 AM 37.4 °F 32.8 °F 30.2 °F 75% 29.92 in 10.0 mi NW 5.8 mph - N/A   Clear
1:15 AM 37.4 °F - 32.0 °F 81% 29.93 in 10.0 mi Calm Calm - N/A   Clear
1:35 AM 35.6 °F 32.8 °F 32.0 °F 87% 29.94 in 10.0 mi SW 3.5 mph - N/A   Clear
1:55 AM 35.6 °F 30.7 °F 30.2 °F 81% 29.93 in 10.0 mi WNW 5.8 mph - N/A   Clear
2:15 AM 35.6 °F 31.7 °F 30.2 °F 81% 29.93 in 10.0 mi West 4.6 mph - N/A   Clear
2:35 AM 33.8 °F 28.6 °F 30.2 °F 87% 29.94 in 10.0 mi West 5.8 mph - N/A   Clear
2:55 AM 32.0 °F 26.4 °F 28.4 °F 87% 29.94 in 10.0 mi WSW 5.8 mph - N/A   Clear
3:15 AM 32.0 °F 25.6 °F 28.4 °F 87% 29.93 in 10.0 mi WSW 6.9 mph - N/A   Clear
3:35 AM 32.0 °F 26.4 °F 28.4 °F 87% 29.93 in 10.0 mi WSW 5.8 mph - N/A   Clear
3:55 AM 33.8 °F 28.6 °F 28.4 °F 81% 29.92 in 10.0 mi West 5.8 mph - N/A   Clear
4:15 AM 33.8 °F 28.6 °F 28.4 °F 81% 29.92 in 10.0 mi West 5.8 mph - N/A   Clear
4:35 AM 32.0 °F 25.6 °F 28.4 °F 87% 29.91 in 10.0 mi West 6.9 mph - N/A   Clear
4:55 AM 30.2 °F - 26.6 °F 86% 29.91 in 10.0 mi Calm Calm - N/A   Clear
5:15 AM 28.4 °F - 26.6 °F 93% 29.91 in 10.0 mi North - - N/A   Clear
5:35 AM 30.2 °F - 28.4 °F 93% 29.90 in 10.0 mi Calm Calm - N/A   Clear
5:55 AM 32.0 °F 28.7 °F 28.4 °F 87% 29.90 in 10.0 mi SSW 3.5 mph - N/A   Clear
6:15 AM 28.4 °F 23.3 °F 26.6 °F 93% 29.91 in 10.0 mi South 4.6 mph - N/A   Clear
6:35 AM 30.2 °F 25.4 °F 28.4 °F 93% 29.91 in 10.0 mi SW 4.6 mph - N/A   Clear
6:55 AM 30.2 °F 23.4 °F 28.4 °F 93% 29.92 in 10.0 mi SW 6.9 mph - N/A   Clear
7:15 AM 28.4 °F 19.7 °F 26.6 °F 93% 29.93 in 10.0 mi SW 9.2 mph - N/A   Clear
7:35 AM 28.4 °F 22.2 °F 26.6 °F 93% 29.93 in 10.0 mi SSW 5.8 mph - N/A   Clear
7:55 AM 30.2 °F 24.3 °F 26.6 °F 86% 29.93 in 10.0 mi SSW 5.8 mph - N/A   Clear
8:15 AM 30.2 °F 24.3 °F 28.4 °F 93% 29.93 in 10.0 mi SSW 5.8 mph - N/A   Clear
8:35 AM 30.2 °F 25.4 °F 28.4 °F 93% 29.93 in 10.0 mi South 4.6 mph - N/A   Clear
8:55 AM 33.8 °F 27.7 °F 28.4 °F 81% 29.92 in 10.0 mi SW 6.9 mph - N/A   Clear
9:15 AM 35.6 °F 31.7 °F 30.2 °F 81% 29.92 in 10.0 mi SSW 4.6 mph - N/A   Partly Cloudy
9:35 AM 37.4 °F 32.8 °F 30.2 °F 75% 29.93 in 10.0 mi SW 5.8 mph - N/A   Clear
9:55 AM 37.4 °F 30.8 °F 30.2 °F 75% 29.93 in 10.0 mi SW 9.2 mph - N/A   Clear
10:15 AM 39.2 °F 35.0 °F 30.2 °F 70% 29.92 in 10.0 mi SSW 5.8 mph - N/A   Clear
10:35 AM 41.0 °F 38.0 °F 30.2 °F 65% 29.92 in 10.0 mi SSW 4.6 mph - N/A   Clear
10:55 AM 41.0 °F 37.1 °F 30.2 °F 65% 29.91 in 10.0 mi South 5.8 mph - N/A   Clear
11:15 AM 42.8 °F 37.0 °F 28.4 °F 57% 29.91 in 10.0 mi South 10.4 mph - N/A   Clear
11:35 AM 44.6 °F 39.7 °F 28.4 °F 53% 29.90 in 10.0 mi South 9.2 mph - N/A   Clear
11:55 AM 46.4 °F 41.9 °F 28.4 °F 50% 29.89 in 10.0 mi South 9.2 mph - N/A   Clear
12:15 PM 48.2 °F - 26.6 °F 43% 29.88 in 10.0 mi South 10.4 mph - N/A   Clear
12:35 PM 48.2 °F - 23.0 °F 37% 29.86 in 10.0 mi South 11.5 mph - N/A   Clear
12:55 PM 48.2 °F - 24.8 °F 40% 29.85 in 10.0 mi South 11.5 mph - N/A   Clear
1:15 PM 48.2 °F - 24.8 °F 40% 29.84 in 10.0 mi South 12.7 mph - N/A   Clear
1:35 PM 48.2 °F - 26.6 °F 43% 29.82 in 10.0 mi SSE 12.7 mph - N/A   Clear
1:55 PM 48.2 °F - 24.8 °F 40% 29.82 in 10.0 mi South 16.1 mph - N/A   Clear
2:15 PM 48.2 °F - 26.6 °F 43% 29.80 in 10.0 mi South 15.0 mph - N/A   Clear
2:35 PM 48.2 °F - 26.6 °F 43% 29.79 in 10.0 mi SSE 16.1 mph - N/A   Clear
2:55 PM 48.2 °F - 26.6 °F 43% 29.77 in 10.0 mi SSE 12.7 mph - N/A   Clear
3:15 PM 46.4 °F 39.8 °F 26.6 °F 46% 29.77 in 10.0 mi SSE 16.1 mph - N/A   Clear
4:00 PM 46.4 °F 40.1 °F 28.4 °F 50% 29.74 in 10.0 mi SSE 15.0 mph - N/A   Clear
4:15 PM 46.4 °F 41.1 °F 30.2 °F 53% 29.74 in 10.0 mi South 11.5 mph - N/A   Clear
4:35 PM 46.4 °F 40.1 °F 30.2 °F 53% 29.73 in 10.0 mi South 15.0 mph - N/A   Clear
4:55 PM 46.4 °F 40.4 °F 30.2 °F 53% 29.71 in 10.0 mi SSE 13.8 mph - N/A   Clear
5:15 PM 44.6 °F 37.4 °F 30.2 °F 57% 29.70 in 10.0 mi SSE 16.1 mph - N/A   Clear
5:35 PM 44.6 °F 37.4 °F 28.4 °F 53% 29.68 in 10.0 mi SSE 16.1 mph 24.2 mph N/A   Clear
5:55 PM 42.8 °F 35.4 °F 30.2 °F 61% 29.68 in 10.0 mi SE 15.0 mph - N/A   Clear
6:15 PM 42.8 °F 35.8 °F 32.0 °F 66% 29.68 in 10.0 mi SSE 13.8 mph - N/A   Clear
6:35 PM 41.0 °F 34.3 °F 32.0 °F 70% 29.68 in 10.0 mi SSE 11.5 mph - N/A   Mostly Cloudy
6:50 PM 41.0 °F 34.7 °F 32.0 °F 70% 29.67 in 10.0 mi SSE 10.4 mph - N/A   Overcast
7:35 PM 41.0 °F 34.3 °F 32.0 °F 70% 29.67 in 10.0 mi SSE 11.5 mph - N/A   Overcast
7:55 PM 41.0 °F 35.2 °F 33.8 °F 76% 29.65 in 10.0 mi SSE 9.2 mph - N/A   Overcast
8:15 PM 41.0 °F 34.7 °F 33.8 °F 76% 29.65 in 10.0 mi SSW 10.4 mph - N/A   Overcast
8:35 PM 41.0 °F 33.9 °F 32.0 °F 70% 29.64 in 10.0 mi South 12.7 mph - N/A   Mostly Cloudy
8:55 PM 39.2 °F 32.0 °F 32.0 °F 75% 29.65 in 10.0 mi South 11.5 mph - N/A   Mostly Cloudy
9:35 PM 41.0 °F 33.9 °F 32.0 °F 70% 29.63 in 10.0 mi South 12.7 mph - N/A   Overcast
9:55 PM 41.0 °F 33.1 °F 32.0 °F 70% 29.63 in 10.0 mi South 15.0 mph - N/A   Overcast
10:20 PM 41.0 °F 33.5 °F 33.8 °F 76% 29.62 in 10.0 mi SSE 13.8 mph - N/A   Overcast
10:35 PM 41.0 °F 32.2 °F 33.8 °F 76% 29.61 in 10.0 mi SSE 18.4 mph - N/A   Mostly Cloudy
10:55 PM 41.0 °F 33.5 °F 33.8 °F 76% 29.61 in 10.0 mi SSE 13.8 mph 23.0 mph N/A   Mostly Cloudy
11:15 PM 41.0 °F 34.7 °F 35.6 °F 81% 29.59 in 10.0 mi SE 10.4 mph 17.3 mph N/A   Overcast
11:30 PM 41.0 °F 33.9 °F 35.6 °F 81% 29.58 in 10.0 mi SSE 12.7 mph 18.4 mph N/A   Overcast
11:55 PM 41.0 °F 34.7 °F 35.6 °F 81% 29.58 in 10.0 mi SE 10.4 mph - N/A   Overcast